Location: Rounton
(54.4000°N, 1.3500°W)
Time: 13:13:46
(UTC+01:00)

Vanguard 1 - Pass Details

Date: 23 February 2024
Orbit: 653 x 3825 km, 34.2° (Epoch: 22 April)

Event Time Altitude Azimuth Distance (km) Brightness Sun altitude
Rises 01:21:44 0° 270° (W) 7,340 14.4 -43.9°
Enters shadow 01:26:45 - 262° (W) 6,666 14.0 -43.7°
Exits shadow 02:03:02 - 156° (SSE) 6,359 13.9 -41.1°
Sets 02:07:09 0° 148° (SSE) 6,902 14.2 -40.7°
